JES3635 SANT-SABE

Flight info

Callsign JES3635
Flight time 1h 20m
Altitude 39000
Route PUBER3E PUBER UL550 ROS UT672 MULTA UW24 SNT SNT9R
Aircraft A320/M-SDE3FGHIRWY/LB1

Departure

Time 2026-04-21 18:09
Airport Teniente Benjamín Matienzo International Airport (SANT)

Arrival

Time 2026-04-21 19:30
Airport Aeroparque Jorge Newbery (SABE)
Time Latitude Longitude Altitude Speed Heading
2026-04-21 17:44 -26.83529 -65.10750 1493 ft 0 kts 281°
2026-04-21 18:02 -26.83530 -65.10743 1492 ft 4 kts 282°
2026-04-21 18:02 -26.83539 -65.10715 1492 ft 4 kts 309°
2026-04-21 18:02 -26.83557 -65.10701 1485 ft 4 kts
2026-04-21 18:03 -26.83562 -65.10701 1484 ft 0 kts 10°
2026-04-21 18:05 -26.83554 -65.10699 1486 ft 4 kts 11°
2026-04-21 18:05 -26.83515 -65.10690 1488 ft 8 kts 12°
2026-04-21 18:05 -26.83450 -65.10660 1490 ft 12 kts 37°
2026-04-21 18:05 -26.83373 -65.10588 1485 ft 17 kts 40°
2026-04-21 18:06 -26.83275 -65.10492 1493 ft 21 kts 45°
2026-04-21 18:06 -26.83156 -65.10381 1485 ft 24 kts 39°
2026-04-21 18:06 -26.83040 -65.10285 1485 ft 17 kts 26°
2026-04-21 18:06 -26.82912 -65.10252 1479 ft 22 kts 10°
2026-04-21 18:07 -26.82746 -65.10219 1490 ft 27 kts 11°
2026-04-21 18:07 -26.82565 -65.10181 1480 ft 17 kts
2026-04-21 18:07 -26.82448 -65.10188 1488 ft 15 kts 340°
2026-04-21 18:07 -26.82367 -65.10198 1484 ft 8 kts
2026-04-21 18:08 -26.82348 -65.10149 1486 ft 0 kts 116°
2026-04-21 18:08 -26.82356 -65.10145 1490 ft 5 kts 147°
2026-04-21 18:08 -26.82367 -65.10147 1487 ft 0 kts 189°
2026-04-21 18:08 -26.82391 -65.10152 1480 ft 22 kts 190°
2026-04-21 18:09 -26.82786 -65.10229 1480 ft 90 kts 189°
2026-04-21 18:09 -26.83906 -65.10448 1489 ft 153 kts 189°
2026-04-21 18:09 -26.84654 -65.10599 1682 ft 167 kts 191°
2026-04-21 18:09 -26.85804 -65.10792 2362 ft 171 kts 183°
2026-04-21 18:10 -26.87014 -65.10740 2912 ft 185 kts 175°
2026-04-21 18:10 -26.88382 -65.10580 3155 ft 210 kts 171°
2026-04-21 18:10 -26.89908 -65.10168 3515 ft 240 kts 163°
2026-04-21 18:10 -26.91534 -65.09474 4170 ft 257 kts 155°
2026-04-21 18:11 -26.93120 -65.08488 5069 ft 265 kts 147°
2026-04-21 18:11 -26.94698 -65.07353 5930 ft 273 kts 146°
2026-04-21 18:11 -26.96318 -65.06191 6779 ft 280 kts 146°
2026-04-21 18:11 -26.97975 -65.05003 7578 ft 286 kts 146°
2026-04-21 18:12 -26.99666 -65.03795 8382 ft 292 kts 147°
2026-04-21 18:12 -27.01400 -65.02558 9180 ft 298 kts 147°
2026-04-21 18:12 -27.03167 -65.01295 9960 ft 304 kts 147°
2026-04-21 18:12 -27.04988 -64.99991 10409 ft 321 kts 147°
2026-04-21 18:13 -27.06930 -64.98598 10720 ft 340 kts 147°
2026-04-21 18:13 -27.08942 -64.97152 11308 ft 346 kts 148°
2026-04-21 18:13 -27.10983 -64.95686 11992 ft 350 kts 148°
2026-04-21 18:13 -27.13043 -64.94209 12682 ft 353 kts 148°
2026-04-21 18:14 -27.17215 -64.91216 14019 ft 359 kts 149°
2026-04-21 18:14 -27.19325 -64.89698 14581 ft 362 kts 149°
2026-04-21 18:14 -27.21454 -64.88161 15156 ft 365 kts 149°
2026-04-21 18:15 -27.23601 -64.86609 15728 ft 368 kts 150°
2026-04-21 18:15 -27.25767 -64.85046 16296 ft 372 kts 150°
2026-04-21 18:15 -27.27949 -64.83474 16860 ft 375 kts 150°
2026-04-21 18:15 -27.30158 -64.81884 17433 ft 378 kts 150°
2026-04-21 18:16 -27.32384 -64.80284 18009 ft 381 kts 151°
2026-04-21 18:16 -27.34627 -64.78669 18564 ft 385 kts 151°
2026-04-21 18:16 -27.36891 -64.77038 19043 ft 388 kts 151°
2026-04-21 18:16 -27.39175 -64.75387 19516 ft 392 kts 151°
2026-04-21 18:17 -27.41485 -64.73716 20019 ft 397 kts 151°
2026-04-21 18:17 -27.43819 -64.72027 20480 ft 401 kts 152°
2026-04-21 18:17 -27.46174 -64.70321 20964 ft 405 kts 152°
2026-04-21 18:17 -27.48556 -64.68595 21441 ft 409 kts 152°
2026-04-21 18:18 -27.50959 -64.66852 21905 ft 413 kts 152°
2026-04-21 18:18 -27.53389 -64.65091 22368 ft 416 kts 152°
2026-04-21 18:18 -27.55852 -64.63360 22826 ft 419 kts 153°
2026-04-21 18:18 -27.58362 -64.61661 23282 ft 423 kts 154°
2026-04-21 18:19 -27.60909 -64.59976 23741 ft 426 kts 155°
2026-04-21 18:19 -27.63485 -64.58283 24146 ft 430 kts 155°
2026-04-21 18:19 -27.66081 -64.56572 24527 ft 434 kts 155°
2026-04-21 18:19 -27.68695 -64.54839 24887 ft 438 kts 155°
2026-04-21 18:20 -27.71330 -64.53080 25248 ft 442 kts 155°
2026-04-21 18:20 -27.73978 -64.51298 25610 ft 446 kts 155°
2026-04-21 18:20 -27.76650 -64.49492 25963 ft 449 kts 155°
2026-04-21 18:20 -27.79345 -64.47668 26333 ft 453 kts 155°
2026-04-21 18:21 -27.82063 -64.45831 26686 ft 457 kts 155°
2026-04-21 18:21 -27.84800 -64.43983 27033 ft 460 kts 156°
2026-04-21 18:21 -27.87564 -64.42114 27376 ft 464 kts 156°
2026-04-21 18:21 -27.90349 -64.40234 27714 ft 468 kts 156°
2026-04-21 18:22 -27.93152 -64.38346 28065 ft 471 kts 156°
2026-04-21 18:22 -27.95981 -64.36434 28393 ft 475 kts 156°
2026-04-21 18:22 -27.98826 -64.34505 28718 ft 478 kts 156°
2026-04-21 18:22 -28.01693 -64.32562 29053 ft 482 kts 156°
2026-04-21 18:23 -28.04574 -64.30610 29395 ft 485 kts 156°
2026-04-21 18:23 -28.07448 -64.28665 29731 ft 489 kts 156°
2026-04-21 18:23 -28.10414 -64.26656 30073 ft 492 kts 156°
2026-04-21 18:23 -28.13359 -64.24657 30395 ft 496 kts 157°
2026-04-21 18:24 -28.16328 -64.22643 30660 ft 499 kts 157°
2026-04-21 18:24 -28.19317 -64.20612 30938 ft 502 kts 157°
2026-04-21 18:24 -28.22283 -64.18594 31217 ft 505 kts 156°
2026-04-21 18:24 -28.25305 -64.16537 31510 ft 508 kts 156°
2026-04-21 18:25 -28.28349 -64.14465 31803 ft 511 kts 157°
2026-04-21 18:25 -28.31409 -64.12384 32085 ft 514 kts 157°
2026-04-21 18:25 -28.34484 -64.10292 32433 ft 515 kts 157°
2026-04-21 18:25 -28.37560 -64.08191 32857 ft 516 kts 157°
2026-04-21 18:26 -28.40640 -64.06086 33217 ft 517 kts 157°
2026-04-21 18:26 -28.43717 -64.03983 33589 ft 517 kts 157°
2026-04-21 18:26 -28.46798 -64.01872 34017 ft 517 kts 157°
2026-04-21 18:26 -28.49877 -63.99760 34378 ft 517 kts 157°
2026-04-21 18:27 -28.52954 -63.97652 34721 ft 517 kts 157°
2026-04-21 18:27 -28.56036 -63.95543 35058 ft 517 kts 157°
2026-04-21 18:27 -28.59119 -63.93434 35394 ft 517 kts 157°
2026-04-21 18:27 -28.62191 -63.91331 35730 ft 516 kts 157°
2026-04-21 18:28 -28.65272 -63.89221 36072 ft 516 kts 157°
2026-04-21 18:28 -28.68349 -63.87111 36404 ft 516 kts 157°
2026-04-21 18:28 -28.71421 -63.85004 36717 ft 516 kts 157°
2026-04-21 18:28 -28.74498 -63.82890 37018 ft 516 kts 157°
2026-04-21 18:29 -28.77570 -63.80775 37335 ft 516 kts 157°
2026-04-21 18:29 -28.80639 -63.78657 37636 ft 516 kts 157°
2026-04-21 18:29 -28.83706 -63.76532 37972 ft 516 kts 157°
2026-04-21 18:29 -28.86773 -63.74402 38258 ft 516 kts 157°
2026-04-21 18:30 -28.89837 -63.72269 38547 ft 515 kts 157°
2026-04-21 18:30 -28.92889 -63.70138 38831 ft 515 kts 157°
2026-04-21 18:30 -28.95946 -63.68001 39041 ft 515 kts 157°
2026-04-21 18:31 -29.02058 -63.63730 39113 ft 515 kts 157°
2026-04-21 18:31 -29.08173 -63.59467 39107 ft 514 kts 157°
2026-04-21 18:32 -29.14280 -63.55197 39112 ft 515 kts 157°
2026-04-21 18:32 -29.20391 -63.50910 39116 ft 515 kts 157°
2026-04-21 18:33 -29.26501 -63.46625 39116 ft 515 kts 157°
2026-04-21 18:33 -29.32617 -63.42335 39137 ft 516 kts 158°
2026-04-21 18:34 -29.38740 -63.38035 39139 ft 516 kts 158°
2026-04-21 18:34 -29.44851 -63.33734 39138 ft 516 kts 157°
2026-04-21 18:35 -29.49926 -63.30148 39139 ft 516 kts 157°
2026-04-21 18:35 -29.57070 -63.25078 39150 ft 517 kts 157°
2026-04-21 18:36 -29.63183 -63.20729 39140 ft 517 kts 157°
2026-04-21 18:36 -29.69299 -63.16369 39139 ft 517 kts 157°
2026-04-21 18:37 -29.75419 -63.12010 39155 ft 517 kts 158°
2026-04-21 18:37 -29.81539 -63.07648 39144 ft 518 kts 158°
2026-04-21 18:38 -29.87660 -63.03267 39143 ft 518 kts 158°
2026-04-21 18:38 -29.93783 -62.98891 39135 ft 518 kts 158°
2026-04-21 18:39 -29.99899 -62.94510 39151 ft 518 kts 158°
2026-04-21 18:39 -30.06014 -62.90117 39144 ft 518 kts 158°
2026-04-21 18:40 -30.12083 -62.85750 39135 ft 518 kts 158°
2026-04-21 18:40 -30.17204 -62.82064 39148 ft 517 kts 158°
2026-04-21 18:41 -30.24298 -62.76954 39148 ft 516 kts 158°
2026-04-21 18:41 -30.30380 -62.72559 39145 ft 516 kts 158°
2026-04-21 18:42 -30.36462 -62.68157 39147 ft 515 kts 158°
2026-04-21 18:42 -30.42537 -62.63755 39126 ft 513 kts 158°
2026-04-21 18:43 -30.48591 -62.59363 39118 ft 513 kts 158°
2026-04-21 18:43 -30.54647 -62.54978 39126 ft 513 kts 158°
2026-04-21 18:44 -30.60704 -62.50589 39154 ft 514 kts 158°
2026-04-21 18:44 -30.66766 -62.46160 39136 ft 514 kts 158°
2026-04-21 18:45 -30.72822 -62.41735 39129 ft 514 kts 158°
2026-04-21 18:45 -30.78881 -62.37313 39125 ft 514 kts 158°
2026-04-21 18:46 -30.84954 -62.32897 39125 ft 514 kts 158°
2026-04-21 18:46 -30.91028 -62.28497 39122 ft 514 kts 158°
2026-04-21 18:47 -30.97096 -62.24088 39122 ft 515 kts 158°
2026-04-21 18:47 -31.03159 -62.19657 39152 ft 514 kts 158°
2026-04-21 18:48 -31.09215 -62.15232 39123 ft 513 kts 158°
2026-04-21 18:48 -31.15268 -62.10815 39120 ft 513 kts 158°
2026-04-21 18:49 -31.21327 -62.06384 39119 ft 514 kts 158°
2026-04-21 18:49 -31.26350 -62.02672 39124 ft 513 kts 157°
2026-04-21 18:50 -31.33373 -61.97429 39117 ft 512 kts 157°
2026-04-21 18:50 -31.39386 -61.92942 39116 ft 512 kts 157°
2026-04-21 18:51 -31.44378 -61.89221 39093 ft 512 kts 158°
2026-04-21 18:51 -31.51361 -61.84016 39129 ft 511 kts 157°
2026-04-21 18:52 -31.57352 -61.79539 39122 ft 510 kts 157°
2026-04-21 18:52 -31.62366 -61.75776 39120 ft 510 kts 157°
2026-04-21 18:53 -31.68339 -61.71293 39135 ft 509 kts 156°
2026-04-21 18:53 -31.74313 -61.66815 39126 ft 509 kts 157°
2026-04-21 18:54 -31.80232 -61.62370 39116 ft 508 kts 156°
2026-04-21 18:54 -31.86186 -61.57877 39146 ft 508 kts 156°
2026-04-21 18:55 -31.92126 -61.53387 39114 ft 507 kts 156°
2026-04-21 18:55 -31.98067 -61.48901 39114 ft 507 kts 156°
2026-04-21 18:56 -32.04002 -61.44410 39100 ft 507 kts 156°
2026-04-21 18:56 -32.09940 -61.39908 39122 ft 507 kts 156°
2026-04-21 18:57 -32.15882 -61.35408 39116 ft 508 kts 156°
2026-04-21 18:57 -32.21822 -61.30895 39099 ft 508 kts 156°
2026-04-21 18:58 -32.27748 -61.26373 39132 ft 507 kts 156°
2026-04-21 18:58 -32.33682 -61.21846 39119 ft 507 kts 156°
2026-04-21 18:59 -32.39614 -61.17327 39109 ft 507 kts 156°
2026-04-21 18:59 -32.45536 -61.12793 39107 ft 507 kts 156°
2026-04-21 19:00 -32.51454 -61.08259 39088 ft 505 kts 156°
2026-04-21 19:00 -32.57360 -61.03732 39073 ft 506 kts 156°
2026-04-21 19:01 -32.63232 -60.99210 39078 ft 507 kts 156°
2026-04-21 19:01 -32.69141 -60.94647 39108 ft 507 kts 156°
2026-04-21 19:02 -32.75060 -60.90088 39085 ft 507 kts 156°
2026-04-21 19:02 -32.80984 -60.85516 39076 ft 508 kts 156°
2026-04-21 19:03 -32.86905 -60.80933 39072 ft 508 kts 156°
2026-04-21 19:03 -32.92845 -60.76380 39074 ft 506 kts 158°
2026-04-21 19:04 -32.98892 -60.72170 39063 ft 502 kts 161°
2026-04-21 19:04 -33.04988 -60.68127 39078 ft 502 kts 161°
2026-04-21 19:05 -33.11086 -60.63989 39080 ft 504 kts 160°
2026-04-21 19:05 -33.17122 -60.59790 39076 ft 505 kts 159°
2026-04-21 19:06 -33.23206 -60.55535 39078 ft 505 kts 159°
2026-04-21 19:06 -33.29269 -60.51312 39095 ft 505 kts 159°
2026-04-21 19:07 -33.35335 -60.47090 39087 ft 505 kts 159°
2026-04-21 19:07 -33.41409 -60.42851 39064 ft 504 kts 159°
2026-04-21 19:07 -33.44448 -60.40731 38280 ft 512 kts 159°
2026-04-21 19:08 -33.47569 -60.38562 37294 ft 521 kts 159°
2026-04-21 19:08 -33.50689 -60.36387 36149 ft 521 kts 158°
2026-04-21 19:08 -33.53834 -60.34187 34912 ft 523 kts 158°
2026-04-21 19:08 -33.56966 -60.31991 33936 ft 519 kts 158°
2026-04-21 19:09 -33.60060 -60.29814 32889 ft 513 kts 158°
2026-04-21 19:09 -33.63109 -60.27664 31969 ft 506 kts 157°
2026-04-21 19:09 -33.66130 -60.25532 31137 ft 497 kts 157°
2026-04-21 19:09 -33.69099 -60.23440 30257 ft 490 kts 156°
2026-04-21 19:10 -33.72009 -60.21392 29244 ft 482 kts 156°
2026-04-21 19:10 -33.74880 -60.19373 28356 ft 472 kts 156°
2026-04-21 19:10 -33.77659 -60.17413 27926 ft 453 kts 156°
2026-04-21 19:10 -33.80329 -60.15522 27436 ft 438 kts 156°
2026-04-21 19:11 -33.82798 -60.13442 26989 ft 433 kts 146°
2026-04-21 19:11 -33.84919 -60.10979 26621 ft 425 kts 135°
2026-04-21 19:11 -33.86708 -60.08142 26197 ft 419 kts 127°
2026-04-21 19:11 -33.88342 -60.05219 25790 ft 420 kts 127°
2026-04-21 19:12 -33.89968 -60.02316 25392 ft 418 kts 127°
2026-04-21 19:12 -33.91573 -59.99449 24987 ft 418 kts 127°
2026-04-21 19:12 -33.93189 -59.96563 24570 ft 415 kts 127°
2026-04-21 19:12 -33.94795 -59.93685 24142 ft 412 kts 127°
2026-04-21 19:13 -33.96407 -59.90792 23704 ft 411 kts 127°
2026-04-21 19:13 -33.97996 -59.87939 23221 ft 408 kts 127°
2026-04-21 19:13 -33.99566 -59.85115 22787 ft 404 kts 127°
2026-04-21 19:13 -34.01103 -59.82351 22354 ft 400 kts 126°
2026-04-21 19:14 -34.02629 -59.79599 21906 ft 397 kts 126°
2026-04-21 19:14 -34.04162 -59.76832 21469 ft 394 kts 126°
2026-04-21 19:14 -34.05687 -59.74081 21029 ft 391 kts 126°
2026-04-21 19:14 -34.07195 -59.71361 20582 ft 388 kts 126°
2026-04-21 19:15 -34.08676 -59.68691 20149 ft 386 kts 126°
2026-04-21 19:15 -34.10173 -59.65992 19709 ft 384 kts 126°
2026-04-21 19:15 -34.11649 -59.63325 19278 ft 382 kts 126°
2026-04-21 19:15 -34.13129 -59.60650 18823 ft 380 kts 125°
2026-04-21 19:16 -34.14590 -59.58005 18387 ft 378 kts 125°
2026-04-21 19:16 -34.16043 -59.55374 17913 ft 376 kts 124°
2026-04-21 19:16 -34.17480 -59.52763 17471 ft 373 kts 124°
2026-04-21 19:16 -34.18913 -59.50157 17034 ft 370 kts 124°
2026-04-21 19:17 -34.21623 -59.44946 16172 ft 364 kts 115°
2026-04-21 19:17 -34.22496 -59.42077 15752 ft 361 kts 103°
2026-04-21 19:17 -34.22984 -59.39120 15330 ft 358 kts 98°
2026-04-21 19:18 -34.23429 -59.36178 14911 ft 355 kts 98°
2026-04-21 19:18 -34.23881 -59.33242 14511 ft 354 kts 98°
2026-04-21 19:18 -34.24331 -59.30324 14096 ft 352 kts 98°
2026-04-21 19:18 -34.24776 -59.27440 13679 ft 350 kts 98°
2026-04-21 19:19 -34.25218 -59.24559 13260 ft 347 kts 98°
2026-04-21 19:19 -34.25655 -59.21693 12852 ft 344 kts 98°
2026-04-21 19:19 -34.26084 -59.18867 12453 ft 341 kts 98°
2026-04-21 19:19 -34.26509 -59.16065 12066 ft 338 kts 98°
2026-04-21 19:20 -34.26927 -59.13290 11657 ft 336 kts 98°
2026-04-21 19:20 -34.27347 -59.10490 11263 ft 335 kts 98°
2026-04-21 19:20 -34.27759 -59.07726 10864 ft 334 kts 98°
2026-04-21 19:20 -34.28168 -59.04975 10461 ft 332 kts 98°
2026-04-21 19:21 -34.28576 -59.02237 10088 ft 329 kts 98°
2026-04-21 19:21 -34.28980 -58.99547 9817 ft 322 kts 98°
2026-04-21 19:21 -34.29474 -58.96929 9507 ft 321 kts 110°
2026-04-21 19:21 -34.30461 -58.94505 9040 ft 321 kts 118°
2026-04-21 19:22 -34.31501 -58.92152 8629 ft 314 kts 118°
2026-04-21 19:22 -34.32530 -58.89832 7993 ft 312 kts 118°
2026-04-21 19:22 -34.33548 -58.87538 7463 ft 306 kts 118°
2026-04-21 19:22 -34.34550 -58.85281 6842 ft 305 kts 118°
2026-04-21 19:23 -34.35546 -58.83038 6330 ft 299 kts 118°
2026-04-21 19:23 -34.36519 -58.80839 5746 ft 295 kts 118°
2026-04-21 19:23 -34.37464 -58.78697 5197 ft 290 kts 118°
2026-04-21 19:23 -34.38405 -58.76560 4669 ft 286 kts 118°
2026-04-21 19:24 -34.39334 -58.74450 4151 ft 281 kts 118°
2026-04-21 19:24 -34.40262 -58.72346 3628 ft 279 kts 118°
2026-04-21 19:24 -34.41145 -58.70340 3495 ft 265 kts 118°
2026-04-21 19:24 -34.41980 -58.68439 3432 ft 245 kts 118°
2026-04-21 19:25 -34.42746 -58.66695 3374 ft 224 kts 118°
2026-04-21 19:25 -34.43449 -58.65095 3297 ft 208 kts 118°
2026-04-21 19:25 -34.44113 -58.63583 3220 ft 197 kts 118°
2026-04-21 19:25 -34.44747 -58.62136 3140 ft 197 kts 118°
2026-04-21 19:26 -34.45382 -58.60612 3038 ft 205 kts 120°
2026-04-21 19:26 -34.46122 -58.59129 2950 ft 207 kts 124°
2026-04-21 19:26 -34.46919 -58.57674 2882 ft 208 kts 125°
2026-04-21 19:26 -34.47725 -58.56232 2628 ft 205 kts 125°
2026-04-21 19:27 -34.48523 -58.54808 2359 ft 203 kts 125°
2026-04-21 19:27 -34.49295 -58.53430 2098 ft 190 kts 125°
2026-04-21 19:27 -34.50007 -58.52157 1875 ft 172 kts 126°
2026-04-21 19:27 -34.50639 -58.51028 1642 ft 153 kts 126°
2026-04-21 19:28 -34.51219 -58.49993 1431 ft 145 kts 127°
2026-04-21 19:28 -34.51778 -58.48994 1251 ft 142 kts 126°
2026-04-21 19:28 -34.52331 -58.48006 1077 ft 140 kts 126°
2026-04-21 19:28 -34.52867 -58.47049 888 ft 138 kts 125°
2026-04-21 19:29 -34.53401 -58.46088 724 ft 138 kts 127°
2026-04-21 19:29 -34.53926 -58.45122 511 ft 133 kts 128°
2026-04-21 19:29 -34.54443 -58.44206 356 ft 132 kts 129°
2026-04-21 19:29 -34.54953 -58.43303 213 ft 130 kts 128°
2026-04-21 19:30 -34.55447 -58.42427 51 ft 126 kts 128°
2026-04-21 19:30 -34.55880 -58.41676 24 ft 75 kts 124°
2026-04-21 19:30 -34.56113 -58.41248 31 ft 39 kts 123°
2026-04-21 19:30 -34.56189 -58.41063 27 ft 7 kts 69°
2026-04-21 19:31 -34.56178 -58.41036 30 ft 7 kts 63°
2026-04-21 19:31 -34.56163 -58.41004 25 ft 1 kts 59°
2026-04-21 19:31 -34.56153 -58.40985 25 ft 4 kts 55°
2026-04-21 19:31 -34.56124 -58.40981 28 ft 5 kts 325°
2026-04-21 19:32 -34.56098 -58.41025 29 ft 8 kts 304°
2026-04-21 19:32 -34.56061 -58.41084 25 ft 10 kts 308°
2026-04-21 19:32 -34.56022 -58.41145 26 ft 9 kts 308°
2026-04-21 19:32 -34.55996 -58.41184 27 ft 1 kts 308°
2026-04-21 19:33 -34.55991 -58.41192 28 ft 3 kts 307°
2026-04-21 19:33 -34.55966 -58.41234 27 ft 7 kts 306°
2026-04-21 19:33 -34.55939 -58.41278 28 ft 6 kts 306°
2026-04-21 19:33 -34.55910 -58.41333 29 ft 12 kts 298°
2026-04-21 19:34 -34.55859 -58.41458 29 ft 16 kts 296°
2026-04-21 19:34 -34.55809 -58.41576 27 ft 15 kts 303°
2026-04-21 19:34 -34.55736 -58.41587 28 ft 14 kts 337°
2026-04-21 19:34 -34.55702 -58.41633 26 ft 4 kts 304°
2026-04-21 19:35 -34.55691 -58.41652 25 ft 0 kts 304°
2026-04-21 19:35 -34.55689 -58.41656 25 ft 3 kts 304°
2026-04-21 19:36 -34.55660 -58.41708 25 ft 12 kts 304°
2026-04-21 19:36 -34.55619 -58.41775 28 ft 8 kts 329°
2026-04-21 19:36 -34.55581 -58.41758 25 ft 9 kts 33°
2026-04-21 19:36 -34.55544 -58.41726 25 ft 3 kts 35°
2026-04-21 19:37 -34.55538 -58.41722 25 ft 0 kts 33°